Year,Month,Day,Hour,Minute,Value (Times are PST for temperature in C)
2009,06,04,00,00,17.80
2009,06,04,00,01,17.90
2009,06,04,00,02,17.90
2009,06,04,00,03,18.00
2009,06,04,00,04,18.00
2009,06,04,00,05,18.10
2009,06,04,00,06,18.10
2009,06,04,00,07,18.10
2009,06,04,00,08,18.10
2009,06,04,00,09,18.10
2009,06,04,00,10,18.10
2009,06,04,00,11,18.10
2009,06,04,00,12,18.10
2009,06,04,00,13,18.00
2009,06,04,00,14,18.00
2009,06,04,00,15,17.90
2009,06,04,00,16,17.90
2009,06,04,00,17,17.80
2009,06,04,00,18,17.80
2009,06,04,00,19,17.80
2009,06,04,00,20,17.80
2009,06,04,00,21,17.80
2009,06,04,00,22,17.80
2009,06,04,00,23,17.80
2009,06,04,00,24,17.70
2009,06,04,00,25,17.70
2009,06,04,00,26,17.70
2009,06,04,00,27,17.70
2009,06,04,00,28,17.70
2009,06,04,00,29,17.70
2009,06,04,00,30,17.70
2009,06,04,00,31,17.70
2009,06,04,00,32,17.70
2009,06,04,00,33,17.60
2009,06,04,00,34,17.60
2009,06,04,00,35,17.50
2009,06,04,00,36,17.40
2009,06,04,00,37,17.30
2009,06,04,00,38,17.20
2009,06,04,00,39,17.20
2009,06,04,00,40,17.10
2009,06,04,00,41,17.10
2009,06,04,00,42,17.00
2009,06,04,00,43,17.00
2009,06,04,00,44,16.90
2009,06,04,00,45,16.90
2009,06,04,00,46,16.80
2009,06,04,00,47,16.80
2009,06,04,00,48,16.80
2009,06,04,00,49,16.70
2009,06,04,00,50,16.70
2009,06,04,00,51,16.60
2009,06,04,00,52,16.60
2009,06,04,00,53,16.50
2009,06,04,00,54,16.50
2009,06,04,00,55,16.40
2009,06,04,00,56,16.40
2009,06,04,00,57,16.40
2009,06,04,00,58,16.40
2009,06,04,00,59,16.30
2009,06,04,01,00,16.30
2009,06,04,01,01,16.20
2009,06,04,01,02,16.20
2009,06,04,01,03,16.20
2009,06,04,01,04,16.10
2009,06,04,01,05,16.10
2009,06,04,01,06,16.10
2009,06,04,01,07,16.10
2009,06,04,01,08,16.10
2009,06,04,01,09,16.10
2009,06,04,01,10,16.10
2009,06,04,01,11,16.20
2009,06,04,01,12,16.20
2009,06,04,01,13,16.20
2009,06,04,01,14,16.30
2009,06,04,01,15,16.30
2009,06,04,01,16,16.30
2009,06,04,01,17,16.30
2009,06,04,01,18,16.30
2009,06,04,01,19,16.40
2009,06,04,01,20,16.40
2009,06,04,01,21,16.50
2009,06,04,01,22,16.60
2009,06,04,01,23,16.60
2009,06,04,01,24,16.70
2009,06,04,01,25,16.70
2009,06,04,01,26,16.80
2009,06,04,01,27,16.80
2009,06,04,01,28,16.90
2009,06,04,01,29,16.90
2009,06,04,01,30,16.90
2009,06,04,01,31,16.90
2009,06,04,01,32,16.90
2009,06,04,01,33,16.90
2009,06,04,01,34,16.90
2009,06,04,01,35,16.90
2009,06,04,01,36,16.90
2009,06,04,01,37,16.90
2009,06,04,01,38,16.90
2009,06,04,01,39,16.90
2009,06,04,01,40,16.90
2009,06,04,01,41,16.80
2009,06,04,01,42,16.80
2009,06,04,01,43,16.80
2009,06,04,01,44,16.80
2009,06,04,01,45,16.80
2009,06,04,01,46,16.90
2009,06,04,01,47,16.90
2009,06,04,01,48,16.90
2009,06,04,01,49,16.90
2009,06,04,01,50,16.90
2009,06,04,01,51,16.90
2009,06,04,01,52,16.90
2009,06,04,01,53,16.90
2009,06,04,01,54,16.90
2009,06,04,01,55,16.90
2009,06,04,01,56,16.90
2009,06,04,01,57,16.90
2009,06,04,01,58,16.90
2009,06,04,01,59,16.90
2009,06,04,02,00,16.90
2009,06,04,02,01,16.90
2009,06,04,02,02,17.00
2009,06,04,02,03,17.00
2009,06,04,02,04,17.10
2009,06,04,02,05,17.10
2009,06,04,02,06,17.10
2009,06,04,02,07,17.10
2009,06,04,02,08,17.20
2009,06,04,02,09,17.10
2009,06,04,02,10,17.10
2009,06,04,02,11,17.10
2009,06,04,02,12,17.10
2009,06,04,02,13,17.00
2009,06,04,02,14,17.00
2009,06,04,02,15,17.00
2009,06,04,02,16,16.90
2009,06,04,02,17,16.90
2009,06,04,02,18,16.90
2009,06,04,02,19,16.80
2009,06,04,02,20,16.80
2009,06,04,02,21,16.80
2009,06,04,02,22,16.80
2009,06,04,02,23,16.70
2009,06,04,02,24,16.70
2009,06,04,02,25,16.70
2009,06,04,02,26,16.70
2009,06,04,02,27,16.70
2009,06,04,02,28,16.70
2009,06,04,02,29,16.70
2009,06,04,02,30,16.70
2009,06,04,02,31,16.70
2009,06,04,02,32,16.70
2009,06,04,02,33,16.70
2009,06,04,02,34,16.80
2009,06,04,02,35,16.80
2009,06,04,02,36,16.80
2009,06,04,02,37,16.90
2009,06,04,02,38,16.90
2009,06,04,02,39,17.00
2009,06,04,02,40,17.00
2009,06,04,02,41,17.10
2009,06,04,02,42,17.20
2009,06,04,02,43,17.30
2009,06,04,02,44,17.30
2009,06,04,02,45,17.40
2009,06,04,02,46,17.40
2009,06,04,02,47,17.50
2009,06,04,02,48,17.50
2009,06,04,02,49,17.60
2009,06,04,02,50,17.60
2009,06,04,02,51,17.60
2009,06,04,02,52,17.60
2009,06,04,02,53,17.60
2009,06,04,02,54,17.60
2009,06,04,02,55,17.70
2009,06,04,02,56,17.60
2009,06,04,02,57,17.60
2009,06,04,02,58,17.60
2009,06,04,02,59,17.60
2009,06,04,03,00,17.50
2009,06,04,03,01,17.50
2009,06,04,03,02,17.50
2009,06,04,03,03,17.50
2009,06,04,03,04,17.40
2009,06,04,03,05,17.40
2009,06,04,03,06,17.40
2009,06,04,03,07,17.40
2009,06,04,03,08,17.30
2009,06,04,03,09,17.30
2009,06,04,03,10,17.30
2009,06,04,03,11,17.20
2009,06,04,03,12,17.20
2009,06,04,03,13,17.20
2009,06,04,03,14,17.10
2009,06,04,03,15,17.00
2009,06,04,03,16,17.00
2009,06,04,03,17,16.90
2009,06,04,03,18,16.90
2009,06,04,03,19,16.80
2009,06,04,03,20,16.80
2009,06,04,03,21,16.80
2009,06,04,03,22,16.70
2009,06,04,03,23,16.70
2009,06,04,03,24,16.70
2009,06,04,03,25,16.70
2009,06,04,03,26,16.60
2009,06,04,03,27,16.60
2009,06,04,03,28,16.60
2009,06,04,03,29,16.60
2009,06,04,03,30,16.50
2009,06,04,03,31,16.50
2009,06,04,03,32,16.50
2009,06,04,03,33,16.50
2009,06,04,03,34,16.50
2009,06,04,03,35,16.50
2009,06,04,03,36,16.60
2009,06,04,03,37,16.60
2009,06,04,03,38,16.60
2009,06,04,03,39,16.60
2009,06,04,03,40,16.60
2009,06,04,03,41,16.60
2009,06,04,03,42,16.60
2009,06,04,03,43,16.60
2009,06,04,03,44,16.60
2009,06,04,03,45,16.60
2009,06,04,03,46,16.60
2009,06,04,03,47,16.60
2009,06,04,03,48,16.60
2009,06,04,03,49,16.50
2009,06,04,03,50,16.50
2009,06,04,03,51,16.50
2009,06,04,03,52,16.40
2009,06,04,03,53,16.30
2009,06,04,03,54,16.20
2009,06,04,03,55,16.10
2009,06,04,03,56,16.00
2009,06,04,03,57,15.90
2009,06,04,03,58,15.80
2009,06,04,03,59,15.70
2009,06,04,04,00,15.70
2009,06,04,04,01,15.60
2009,06,04,04,02,15.60
2009,06,04,04,03,15.50
2009,06,04,04,04,15.50
2009,06,04,04,05,15.40
2009,06,04,04,06,15.40
2009,06,04,04,07,15.30
2009,06,04,04,08,15.30
2009,06,04,04,09,15.30
2009,06,04,04,10,15.20
2009,06,04,04,11,15.20
2009,06,04,04,12,15.20
2009,06,04,04,13,15.10
2009,06,04,04,14,15.00
2009,06,04,04,15,15.00
2009,06,04,04,16,15.00
2009,06,04,04,17,15.00
2009,06,04,04,18,15.00
2009,06,04,04,19,15.00
2009,06,04,04,20,15.00
2009,06,04,04,21,15.00
2009,06,04,04,22,15.10
2009,06,04,04,23,15.30
2009,06,04,04,24,15.30
2009,06,04,04,25,15.40
2009,06,04,04,26,15.50
2009,06,04,04,27,15.60
2009,06,04,04,28,15.70
2009,06,04,04,29,15.70
2009,06,04,04,30,15.80
2009,06,04,04,31,15.90
2009,06,04,04,32,15.90
2009,06,04,04,33,16.00
2009,06,04,04,34,16.10
2009,06,04,04,35,16.10
2009,06,04,04,36,16.10
2009,06,04,04,37,16.20
2009,06,04,04,38,16.20
2009,06,04,04,39,16.20
2009,06,04,04,40,16.20
2009,06,04,04,41,16.30
2009,06,04,04,42,16.30
2009,06,04,04,43,16.40
2009,06,04,04,44,16.40
2009,06,04,04,45,16.40
2009,06,04,04,46,16.50
2009,06,04,04,47,16.50
2009,06,04,04,48,16.50
2009,06,04,04,49,16.50
2009,06,04,04,50,16.50
2009,06,04,04,51,16.50
2009,06,04,04,52,16.40
2009,06,04,04,53,16.40
2009,06,04,04,54,16.40
2009,06,04,04,55,16.30
2009,06,04,04,56,16.30
2009,06,04,04,57,16.20
2009,06,04,04,58,16.20
2009,06,04,04,59,16.10
2009,06,04,05,00,16.00
2009,06,04,05,01,15.90
2009,06,04,05,02,15.90
2009,06,04,05,03,15.80
2009,06,04,05,04,15.80
2009,06,04,05,05,15.70
2009,06,04,05,06,15.70
2009,06,04,05,07,15.60
2009,06,04,05,08,15.60
2009,06,04,05,09,15.50
2009,06,04,05,10,15.50
2009,06,04,05,11,15.40
2009,06,04,05,12,15.30
2009,06,04,05,13,15.30
2009,06,04,05,14,15.20
2009,06,04,05,15,15.10
2009,06,04,05,16,15.10
2009,06,04,05,17,15.00
2009,06,04,05,18,15.00
2009,06,04,05,19,15.00
2009,06,04,05,20,15.00
2009,06,04,05,21,15.00
2009,06,04,05,22,15.00
2009,06,04,05,23,15.00
2009,06,04,05,24,15.00
2009,06,04,05,25,15.00
2009,06,04,05,26,15.00
2009,06,04,05,27,15.00
2009,06,04,05,28,15.00
2009,06,04,05,29,15.00
2009,06,04,05,30,15.00
2009,06,04,05,31,15.00
2009,06,04,05,32,15.00
2009,06,04,05,33,15.00
2009,06,04,05,34,15.00
2009,06,04,05,35,15.10
2009,06,04,05,36,15.20
2009,06,04,05,37,15.20
2009,06,04,05,38,15.30
2009,06,04,05,39,15.30
2009,06,04,05,40,15.40
2009,06,04,05,41,15.50
2009,06,04,05,42,15.60
2009,06,04,05,43,15.60
2009,06,04,05,44,15.70
2009,06,04,05,45,15.70
2009,06,04,05,46,15.80
2009,06,04,05,47,15.80
2009,06,04,05,48,15.90
2009,06,04,05,49,16.00
2009,06,04,05,50,16.10
2009,06,04,05,51,16.10
2009,06,04,05,52,16.20
2009,06,04,05,53,16.20
2009,06,04,05,54,16.30
2009,06,04,05,55,16.30
2009,06,04,05,56,16.30
2009,06,04,05,57,16.30
2009,06,04,05,58,16.30
2009,06,04,05,59,16.30
2009,06,04,06,00,16.40
2009,06,04,06,01,16.40
2009,06,04,06,02,16.40
2009,06,04,06,03,16.40
2009,06,04,06,04,16.40
2009,06,04,06,05,16.50
2009,06,04,06,06,16.50
2009,06,04,06,07,16.50
2009,06,04,06,08,16.50
2009,06,04,06,09,16.60
2009,06,04,06,10,16.60
2009,06,04,06,11,16.60
2009,06,04,06,12,16.60
2009,06,04,06,13,16.60
2009,06,04,06,14,16.60
2009,06,04,06,15,16.60
2009,06,04,06,16,16.60
2009,06,04,06,17,16.60
2009,06,04,06,18,16.60
2009,06,04,06,19,16.60
2009,06,04,06,20,16.70
2009,06,04,06,21,16.70
2009,06,04,06,22,16.70
2009,06,04,06,23,16.70
2009,06,04,06,24,16.70
2009,06,04,06,25,16.70
2009,06,04,06,26,16.70
2009,06,04,06,27,16.80
2009,06,04,06,28,16.80
2009,06,04,06,29,16.80
2009,06,04,06,30,16.90
2009,06,04,06,31,16.90
2009,06,04,06,32,17.00
2009,06,04,06,33,17.00
2009,06,04,06,34,17.10
2009,06,04,06,35,17.10
2009,06,04,06,36,17.20
2009,06,04,06,37,17.20
2009,06,04,06,38,17.30
2009,06,04,06,39,17.40
2009,06,04,06,40,17.50
2009,06,04,06,41,17.60
2009,06,04,06,42,17.70
2009,06,04,06,43,17.80
2009,06,04,06,44,17.80
2009,06,04,06,45,17.90
2009,06,04,06,46,17.90
2009,06,04,06,47,18.00
2009,06,04,06,48,18.00
2009,06,04,06,49,18.10
2009,06,04,06,50,18.10
2009,06,04,06,51,18.20
2009,06,04,06,52,18.20
2009,06,04,06,53,18.20
2009,06,04,06,54,18.30
2009,06,04,06,55,18.30
2009,06,04,06,56,18.30
2009,06,04,06,57,18.40
2009,06,04,06,58,18.40
2009,06,04,06,59,18.50
2009,06,04,07,00,18.60
2009,06,04,07,01,18.60
2009,06,04,07,02,18.60
2009,06,04,07,03,18.30
2009,06,04,07,04,18.00
2009,06,04,07,05,17.60
2009,06,04,07,06,17.20
2009,06,04,07,07,17.00
2009,06,04,07,08,16.60
2009,06,04,07,09,16.50
2009,06,04,07,10,16.30
2009,06,04,07,11,16.20
2009,06,04,07,12,16.20
2009,06,04,07,13,16.20
2009,06,04,07,14,16.10
2009,06,04,07,15,15.90
2009,06,04,07,16,15.70
2009,06,04,07,17,15.40
2009,06,04,07,18,15.30
2009,06,04,07,19,15.10
2009,06,04,07,20,15.00
2009,06,04,07,21,15.00
2009,06,04,07,22,15.00
2009,06,04,07,23,15.00
2009,06,04,07,24,15.00
2009,06,04,07,25,15.00
2009,06,04,07,26,15.00
2009,06,04,07,27,15.10
2009,06,04,07,28,15.20
2009,06,04,07,29,15.30
2009,06,04,07,30,15.40
2009,06,04,07,31,15.50
2009,06,04,07,32,15.60
2009,06,04,07,33,15.70
2009,06,04,07,34,15.80
2009,06,04,07,35,15.90
2009,06,04,07,36,15.90
2009,06,04,07,37,16.00
2009,06,04,07,38,16.00
2009,06,04,07,39,16.00
2009,06,04,07,40,16.10
2009,06,04,07,41,16.10
2009,06,04,07,42,16.10
2009,06,04,07,43,16.10
2009,06,04,07,44,16.20
2009,06,04,07,45,16.30
2009,06,04,07,46,16.40
2009,06,04,07,47,16.50
2009,06,04,07,48,16.60
2009,06,04,07,49,16.60
2009,06,04,07,50,16.60
2009,06,04,07,51,16.50
2009,06,04,07,52,16.40
2009,06,04,07,53,16.20
2009,06,04,07,54,16.00
2009,06,04,07,55,15.90
2009,06,04,07,56,15.90
2009,06,04,07,57,15.90
2009,06,04,07,58,16.00
2009,06,04,07,59,16.00
2009,06,04,08,00,16.00
2009,06,04,08,01,16.10
2009,06,04,08,02,16.10
2009,06,04,08,03,16.10
2009,06,04,08,04,16.20
2009,06,04,08,05,16.30
2009,06,04,08,06,16.40
2009,06,04,08,07,16.50
2009,06,04,08,08,16.60
2009,06,04,08,09,16.80
2009,06,04,08,10,17.00
2009,06,04,08,11,17.10
2009,06,04,08,12,17.20
2009,06,04,08,13,17.40
2009,06,04,08,14,17.50
2009,06,04,08,15,17.60
2009,06,04,08,16,17.80
2009,06,04,08,17,18.00
2009,06,04,08,18,18.10
2009,06,04,08,19,18.20
2009,06,04,08,20,18.20
2009,06,04,08,21,18.30
2009,06,04,08,22,18.30
2009,06,04,08,23,18.40
2009,06,04,08,24,18.50
2009,06,04,08,25,18.50
2009,06,04,08,26,18.60
2009,06,04,08,27,18.70
2009,06,04,08,28,18.80
2009,06,04,08,29,18.90
2009,06,04,08,30,19.10
2009,06,04,08,31,19.30
2009,06,04,08,32,19.60
2009,06,04,08,33,19.70
2009,06,04,08,34,19.90
2009,06,04,08,35,19.90
2009,06,04,08,36,19.90
2009,06,04,08,37,19.90
2009,06,04,08,38,19.90
2009,06,04,08,39,19.90
2009,06,04,08,40,19.90
2009,06,04,08,41,19.70
2009,06,04,08,42,19.50
2009,06,04,08,43,19.10
2009,06,04,08,44,18.80
2009,06,04,08,45,18.30
2009,06,04,08,46,18.00
2009,06,04,08,47,17.70
2009,06,04,08,48,17.50
2009,06,04,08,49,17.40
2009,06,04,08,50,17.40
2009,06,04,08,51,17.50
2009,06,04,08,52,17.70
2009,06,04,08,53,17.90
2009,06,04,08,54,18.10
2009,06,04,08,55,18.30
2009,06,04,08,56,18.50
2009,06,04,08,57,18.80
2009,06,04,08,58,19.40
2009,06,04,08,59,20.10
2009,06,04,09,00,20.80
2009,06,04,09,01,21.40
2009,06,04,09,02,21.90
2009,06,04,09,03,22.30
2009,06,04,09,04,22.70
2009,06,04,09,05,22.80
2009,06,04,09,06,22.90
2009,06,04,09,07,22.90
2009,06,04,09,08,22.80
2009,06,04,09,09,22.90
2009,06,04,09,10,22.90
2009,06,04,09,11,23.00
2009,06,04,09,12,23.10
2009,06,04,09,13,23.30
2009,06,04,09,14,23.50
2009,06,04,09,15,23.60
2009,06,04,09,16,23.40
2009,06,04,09,17,23.10
2009,06,04,09,18,22.60
2009,06,04,09,19,22.20
2009,06,04,09,20,21.80
2009,06,04,09,21,21.40
2009,06,04,09,22,21.00
2009,06,04,09,23,20.60
2009,06,04,09,24,20.30
2009,06,04,09,25,19.90
2009,06,04,09,26,19.50
2009,06,04,09,27,19.10
2009,06,04,09,28,18.80
2009,06,04,09,29,18.50
2009,06,04,09,30,18.30
2009,06,04,09,31,18.10
2009,06,04,09,32,17.80
2009,06,04,09,33,17.40
2009,06,04,09,34,17.10
2009,06,04,09,35,16.90
2009,06,04,09,36,16.80
2009,06,04,09,37,16.80
2009,06,04,09,38,16.80
2009,06,04,09,39,16.80
2009,06,04,09,40,16.80
2009,06,04,09,41,16.90
2009,06,04,09,42,16.80
2009,06,04,09,43,16.80
2009,06,04,09,44,16.80
2009,06,04,09,45,16.70
2009,06,04,09,46,16.60
2009,06,04,09,47,16.60
2009,06,04,09,48,16.50
2009,06,04,09,49,16.40
2009,06,04,09,50,16.40
2009,06,04,09,51,16.50
2009,06,04,09,52,16.60
2009,06,04,09,53,16.50
2009,06,04,09,54,16.50
2009,06,04,09,55,16.50
2009,06,04,09,56,16.60
2009,06,04,09,57,16.70
2009,06,04,09,58,16.80
2009,06,04,09,59,16.80
2009,06,04,10,00,16.70
2009,06,04,10,01,16.60
2009,06,04,10,02,16.50
2009,06,04,10,03,16.40
2009,06,04,10,04,16.40
2009,06,04,10,05,16.40
2009,06,04,10,06,16.30
2009,06,04,10,07,16.40
2009,06,04,10,08,16.50
2009,06,04,10,09,16.60
2009,06,04,10,10,16.70
2009,06,04,10,11,16.70
2009,06,04,10,12,16.70
2009,06,04,10,13,16.70
2009,06,04,10,14,16.70
2009,06,04,10,15,16.70
2009,06,04,10,16,16.80
2009,06,04,10,17,16.80
2009,06,04,10,18,16.90
2009,06,04,10,19,16.90
2009,06,04,10,20,17.10
2009,06,04,10,21,17.30
2009,06,04,10,22,17.40
2009,06,04,10,23,17.40
2009,06,04,10,24,17.40
2009,06,04,10,25,17.50
2009,06,04,10,26,17.60
2009,06,04,10,27,17.70
2009,06,04,10,28,17.70
2009,06,04,10,29,17.80
2009,06,04,10,30,17.90
2009,06,04,10,31,18.00
2009,06,04,10,32,18.10
2009,06,04,10,33,18.30
2009,06,04,10,34,18.30
2009,06,04,10,35,18.30
2009,06,04,10,36,18.20
2009,06,04,10,37,18.10
2009,06,04,10,38,18.10
2009,06,04,10,39,17.90
2009,06,04,10,40,17.80
2009,06,04,10,41,17.90
2009,06,04,10,42,18.00
2009,06,04,10,43,18.10
2009,06,04,10,44,18.20
2009,06,04,10,45,18.10
2009,06,04,10,46,18.10
2009,06,04,10,47,18.10
2009,06,04,10,48,18.00
2009,06,04,10,49,17.80
2009,06,04,10,50,17.70
2009,06,04,10,51,17.60
2009,06,04,10,52,17.50
2009,06,04,10,53,17.50
2009,06,04,10,54,17.50
2009,06,04,10,55,17.50
2009,06,04,10,56,17.40
2009,06,04,10,57,17.40
2009,06,04,10,58,17.50
2009,06,04,10,59,17.60
2009,06,04,11,00,17.70
2009,06,04,11,01,17.80
2009,06,04,11,02,18.00
2009,06,04,11,03,18.10
2009,06,04,11,04,18.30
2009,06,04,11,05,18.40
2009,06,04,11,06,18.40
2009,06,04,11,07,18.30
2009,06,04,11,08,18.30
2009,06,04,11,09,18.30
2009,06,04,11,10,18.40
2009,06,04,11,11,18.40
2009,06,04,11,12,18.30
2009,06,04,11,13,18.30
2009,06,04,11,14,18.20
2009,06,04,11,15,18.10
2009,06,04,11,16,18.00
2009,06,04,11,17,18.00
2009,06,04,11,18,18.00
2009,06,04,11,19,18.10
2009,06,04,11,20,18.20
2009,06,04,11,21,18.20
2009,06,04,11,22,18.20
2009,06,04,11,23,18.20
2009,06,04,11,24,18.20
2009,06,04,11,25,18.10
2009,06,04,11,26,18.10
2009,06,04,11,27,18.10
2009,06,04,11,28,18.10
2009,06,04,11,29,18.10
2009,06,04,11,30,18.00
2009,06,04,11,31,18.00
2009,06,04,11,32,18.10
2009,06,04,11,33,18.20
2009,06,04,11,34,18.40
2009,06,04,11,35,18.50
2009,06,04,11,36,18.60
2009,06,04,11,37,18.70
2009,06,04,11,38,18.80
2009,06,04,11,39,18.80
2009,06,04,11,40,18.80
2009,06,04,11,41,18.80
2009,06,04,11,42,18.80
2009,06,04,11,43,18.80
2009,06,04,11,44,18.80
2009,06,04,11,45,18.90
2009,06,04,11,46,18.90
2009,06,04,11,47,19.00
2009,06,04,11,48,19.10
2009,06,04,11,49,19.20
2009,06,04,11,50,19.50
2009,06,04,11,51,19.70
2009,06,04,11,52,19.90
2009,06,04,11,53,20.10
2009,06,04,11,54,20.20
2009,06,04,11,55,20.40
2009,06,04,11,56,20.40
2009,06,04,11,57,20.40
2009,06,04,11,58,20.40
2009,06,04,11,59,20.50
2009,06,04,12,00,20.50
2009,06,04,12,01,20.60
2009,06,04,12,02,20.50
2009,06,04,12,03,20.30
2009,06,04,12,04,20.30
2009,06,04,12,05,20.30
2009,06,04,12,06,20.30
2009,06,04,12,07,20.40
2009,06,04,12,08,20.40
2009,06,04,12,09,20.40
2009,06,04,12,10,20.30
2009,06,04,12,11,20.30
2009,06,04,12,12,20.30
2009,06,04,12,13,20.20
2009,06,04,12,14,20.30
2009,06,04,12,15,20.30
2009,06,04,12,16,20.30
2009,06,04,12,17,20.20
2009,06,04,12,18,20.30
2009,06,04,12,19,20.30
2009,06,04,12,20,20.30
2009,06,04,12,21,20.40
2009,06,04,12,22,20.50
2009,06,04,12,23,20.60
2009,06,04,12,24,20.60
2009,06,04,12,25,20.60
2009,06,04,12,26,20.80
2009,06,04,12,27,20.80
2009,06,04,12,28,20.80
2009,06,04,12,29,20.80
2009,06,04,12,30,20.80
2009,06,04,12,31,20.90
2009,06,04,12,32,21.00
2009,06,04,12,33,21.10
2009,06,04,12,34,21.10
2009,06,04,12,35,21.10
2009,06,04,12,36,21.20
2009,06,04,12,37,21.30
2009,06,04,12,38,21.40
2009,06,04,12,39,21.50
2009,06,04,12,40,21.60
2009,06,04,12,41,21.70
2009,06,04,12,42,21.80
2009,06,04,12,43,21.80
2009,06,04,12,44,21.80
2009,06,04,12,45,21.80
2009,06,04,12,46,21.80
2009,06,04,12,47,21.70
2009,06,04,12,48,21.70
2009,06,04,12,49,21.70
2009,06,04,12,50,21.70
2009,06,04,12,51,21.70
2009,06,04,12,52,21.70
2009,06,04,12,53,21.80
2009,06,04,12,54,21.80
2009,06,04,12,55,21.80
2009,06,04,12,56,21.80
2009,06,04,12,57,21.80
2009,06,04,12,58,21.80
2009,06,04,12,59,21.80
2009,06,04,13,00,21.80
2009,06,04,13,01,22.00
2009,06,04,13,02,22.00
2009,06,04,13,03,22.10
2009,06,04,13,04,22.20
2009,06,04,13,05,22.40
2009,06,04,13,06,22.60
2009,06,04,13,07,22.70
2009,06,04,13,08,22.80
2009,06,04,13,09,22.90
2009,06,04,13,10,23.00
2009,06,04,13,11,23.10
2009,06,04,13,12,23.20
2009,06,04,13,13,23.20
2009,06,04,13,14,23.00
2009,06,04,13,15,23.00
2009,06,04,13,16,22.90
2009,06,04,13,17,22.80
2009,06,04,13,18,22.60
2009,06,04,13,19,22.40
2009,06,04,13,20,22.30
2009,06,04,13,21,22.20
2009,06,04,13,22,22.10
2009,06,04,13,23,22.30
2009,06,04,13,24,22.50
2009,06,04,13,25,22.60
2009,06,04,13,26,22.70
2009,06,04,13,27,22.70
2009,06,04,13,28,22.80
2009,06,04,13,29,22.80
2009,06,04,13,30,22.90
2009,06,04,13,31,22.80
2009,06,04,13,32,22.70
2009,06,04,13,33,22.70
2009,06,04,13,34,22.70
2009,06,04,13,35,22.80
2009,06,04,13,36,22.90
2009,06,04,13,37,23.00
2009,06,04,13,38,23.00
2009,06,04,13,39,23.00
2009,06,04,13,40,22.90
2009,06,04,13,41,22.70
2009,06,04,13,42,22.70
2009,06,04,13,43,22.60
2009,06,04,13,44,22.70
2009,06,04,13,45,22.80
2009,06,04,13,46,22.80
2009,06,04,13,47,22.80
2009,06,04,13,48,22.80
2009,06,04,13,49,22.90
2009,06,04,13,50,23.00
2009,06,04,13,51,23.20
2009,06,04,13,52,23.20
2009,06,04,13,53,23.30
2009,06,04,13,54,23.40
2009,06,04,13,55,23.40
2009,06,04,13,56,23.40
2009,06,04,13,57,23.40
2009,06,04,13,58,23.40
2009,06,04,13,59,23.40
2009,06,04,14,00,23.40
2009,06,04,14,01,23.50
2009,06,04,14,02,23.50
2009,06,04,14,03,23.50
2009,06,04,14,04,23.60
2009,06,04,14,05,23.70
2009,06,04,14,06,23.80
2009,06,04,14,07,23.80
2009,06,04,14,08,23.70
2009,06,04,14,09,23.60
2009,06,04,14,10,23.50
2009,06,04,14,11,23.40
2009,06,04,14,12,23.30
2009,06,04,14,13,23.30
2009,06,04,14,14,23.40
2009,06,04,14,15,23.50
2009,06,04,14,16,23.50
2009,06,04,14,17,23.50
2009,06,04,14,18,23.60
2009,06,04,14,19,23.70
2009,06,04,14,20,23.80
2009,06,04,14,21,23.80
2009,06,04,14,22,23.70
2009,06,04,14,23,23.60
2009,06,04,14,24,23.40
2009,06,04,14,25,23.20
2009,06,04,14,26,23.10
2009,06,04,14,27,22.90
2009,06,04,14,28,22.70
2009,06,04,14,29,22.60
2009,06,04,14,30,22.60
2009,06,04,14,31,22.60
2009,06,04,14,32,22.60
2009,06,04,14,33,22.60
2009,06,04,14,34,22.60
2009,06,04,14,35,22.60
2009,06,04,14,36,22.60
2009,06,04,14,37,22.60
2009,06,04,14,38,22.70
2009,06,04,14,39,22.70
2009,06,04,14,40,22.70
2009,06,04,14,41,22.60
2009,06,04,14,42,22.60
2009,06,04,14,43,22.60
2009,06,04,14,44,22.70
2009,06,04,14,45,22.90
2009,06,04,14,46,23.00
2009,06,04,14,47,23.10
2009,06,04,14,48,23.30
2009,06,04,14,49,23.40
2009,06,04,14,50,23.40
2009,06,04,14,51,23.60
2009,06,04,14,52,23.70
2009,06,04,14,53,23.90
2009,06,04,14,54,23.90
2009,06,04,14,55,23.90
2009,06,04,14,56,24.00
2009,06,04,14,57,24.10
2009,06,04,14,58,24.20
2009,06,04,14,59,24.20
2009,06,04,15,00,24.20
2009,06,04,15,01,24.30
2009,06,04,15,02,24.20
2009,06,04,15,03,24.20
2009,06,04,15,04,24.20
2009,06,04,15,05,24.20
2009,06,04,15,06,24.30
2009,06,04,15,07,24.40
2009,06,04,15,08,24.30
2009,06,04,15,09,24.30
2009,06,04,15,10,24.30
2009,06,04,15,11,24.30
2009,06,04,15,12,24.20
2009,06,04,15,13,24.00
2009,06,04,15,14,23.90
2009,06,04,15,15,23.70
2009,06,04,15,16,23.60
2009,06,04,15,17,23.50
2009,06,04,15,18,23.40
2009,06,04,15,19,23.50
2009,06,04,15,20,23.70
2009,06,04,15,21,23.90
2009,06,04,15,22,23.90
2009,06,04,15,23,23.90
2009,06,04,15,24,23.90
2009,06,04,15,25,23.90
2009,06,04,15,26,23.90
2009,06,04,15,27,23.70
2009,06,04,15,28,23.70
2009,06,04,15,29,23.70
2009,06,04,15,30,23.70
2009,06,04,15,31,23.80
2009,06,04,15,32,23.80
2009,06,04,15,33,23.70
2009,06,04,15,34,23.80
2009,06,04,15,35,23.80
2009,06,04,15,36,23.80
2009,06,04,15,37,23.80
2009,06,04,15,38,23.80
2009,06,04,15,39,23.80
2009,06,04,15,40,23.80
2009,06,04,15,41,23.80
2009,06,04,15,42,23.80
2009,06,04,15,43,23.70
2009,06,04,15,44,23.70
2009,06,04,15,45,23.70
2009,06,04,15,46,23.70
2009,06,04,15,47,23.80
2009,06,04,15,48,23.90
2009,06,04,15,49,24.00
2009,06,04,15,50,24.10
2009,06,04,15,51,24.20
2009,06,04,15,52,24.20
2009,06,04,15,53,24.30
2009,06,04,15,54,24.40
2009,06,04,15,55,24.30
2009,06,04,15,56,24.20
2009,06,04,15,57,24.20
2009,06,04,15,58,24.00
2009,06,04,15,59,24.00
2009,06,04,16,00,24.10
2009,06,04,16,01,24.20
2009,06,04,16,02,24.10
2009,06,04,16,03,24.00
2009,06,04,16,04,23.90
2009,06,04,16,05,23.70
2009,06,04,16,06,23.50
2009,06,04,16,07,23.40
2009,06,04,16,08,23.40
2009,06,04,16,09,23.30
2009,06,04,16,10,23.30
2009,06,04,16,11,23.30
2009,06,04,16,12,23.40
2009,06,04,16,13,23.50
2009,06,04,16,14,23.60
2009,06,04,16,15,23.50
2009,06,04,16,16,23.50
2009,06,04,16,17,23.40
2009,06,04,16,18,23.40
2009,06,04,16,19,23.30
2009,06,04,16,20,23.30
2009,06,04,16,21,23.30
2009,06,04,16,22,23.30
2009,06,04,16,23,23.40
2009,06,04,16,24,23.40
2009,06,04,16,25,23.40
2009,06,04,16,26,23.30
2009,06,04,16,27,23.30
2009,06,04,16,28,23.20
2009,06,04,16,29,23.20
2009,06,04,16,30,23.10
2009,06,04,16,31,23.20
2009,06,04,16,32,23.20
2009,06,04,16,33,23.40
2009,06,04,16,34,23.50
2009,06,04,16,35,23.60
2009,06,04,16,36,23.70
2009,06,04,16,37,23.90
2009,06,04,16,38,24.10
2009,06,04,16,39,24.20
2009,06,04,16,40,24.20
2009,06,04,16,41,24.30
2009,06,04,16,42,24.40
2009,06,04,16,43,24.40
2009,06,04,16,44,24.50
2009,06,04,16,45,24.60
2009,06,04,16,46,24.70
2009,06,04,16,47,24.60
2009,06,04,16,48,24.60
2009,06,04,16,49,24.50
2009,06,04,16,50,24.40
2009,06,04,16,51,24.40
2009,06,04,16,52,24.40
2009,06,04,16,53,24.30
2009,06,04,16,54,24.10
2009,06,04,16,55,24.00
2009,06,04,16,56,24.00
2009,06,04,16,57,24.10
2009,06,04,16,58,24.10
2009,06,04,16,59,24.20
2009,06,04,17,00,24.30
2009,06,04,17,01,24.40
2009,06,04,17,02,24.40
2009,06,04,17,03,24.40
2009,06,04,17,04,24.40
2009,06,04,17,05,24.50
2009,06,04,17,06,24.60
2009,06,04,17,07,24.60
2009,06,04,17,08,24.60
2009,06,04,17,09,24.70
2009,06,04,17,10,24.80
2009,06,04,17,11,24.90
2009,06,04,17,12,25.00
2009,06,04,17,13,25.10
2009,06,04,17,14,25.20
2009,06,04,17,15,25.20
2009,06,04,17,16,25.30
2009,06,04,17,17,25.30
2009,06,04,17,18,25.20
2009,06,04,17,19,25.20